This is the latest recevied weather packets stored in our database for station/object I8ZSE-10. If no packets are shown the sender has not sent any weather packets the latest 10 day(s).
| Time | Temp. | Humidity | Pressure | Rain* | Wind** | Luminosity | Snow |
|---|---|---|---|---|---|---|---|
| 1788132331 | 23.89° C | 89% | - | 0 mm | - | - | - |
| 1788131730 | 23.89° C | 90% | - | 0 mm | - | - | - |
| 1788131130 | 24.44° C | 87% | - | 0 mm | - | - | - |
| 1788130530 | 24.44° C | 88% | - | 0 mm | - | - | - |
| 1788129930 | 25° C | 82% | - | 0 mm | - | - | - |
| 1788129330 | 24.44° C | 87% | - | 0 mm | - | - | - |
| 1788128730 | 24.44° C | 87% | - | 0 mm | - | - | - |
| 1788128130 | 25° C | 87% | - | 0 mm | - | - | - |
| 1788127530 | 26.11° C | 80% | - | 0 mm | - | - | - |
| 1788126930 | 25.56° C | 82% | - | 0 mm | - | - | - |
| 1788126330 | 24.44° C | 88% | - | 0 mm | - | - | - |
| 1788125730 | 25.56° C | 82% | - | 0 mm | - | - | - |
| 1788125130 | 25.56° C | 81% | - | 0 mm | - | - | - |
| 1788124530 | 25.56° C | 82% | - | 0 mm | - | - | - |
| 1788123930 | 26.11° C | 78% | - | 0 mm | - | - | - |
| 1788123330 | 26.11° C | 82% | - | 0 mm | - | - | - |
| 1788122730 | 26.11° C | 78% | - | 0 mm | - | - | - |
| 1788122130 | 26.67° C | 75% | - | 0 mm | - | - | - |
| 1788121530 | 27.22° C | 69% | - | 0 mm | - | - | - |
| 1788120930 | 27.22° C | 71% | - | 0 mm | - | - | - |
| 1788120330 | 26.67° C | 74% | - | 0 mm | - | - | - |
| 1788119730 | 26.67° C | 76% | - | 0 mm | - | - | - |
| 1788119130 | 26.67° C | 74% | - | 0 mm | - | - | - |
| 1788118530 | 26.67° C | 72% | - | 0 mm | - | - | - |
| 1788117930 | 26.67° C | 71% | - | 0 mm | - | - | - |
* Rain latest hour (hover to see other rain measurements)
** Current wind speed in m/s (hover to see current wind gust speed)